Tracking 30995 objects as of 5-Jul-2025
HD Live streaming from Space Station
objects crossing your sky now

RESURS O1 DEB

Track RESURS O1 DEB now!
10-day predictions


NORAD ID: 23345
Int'l Code: 1994-074D
Perigee: 651.3 km
Apogee: 924.8 km
Inclination: 97.8 °
Period: 100.5 minutes
Semi major axis: 7159 km
RCS: 0.0839 m2 (small)
Launch date: November 4, 1994
Source: Commonwealth of Independent States (former USSR) (CIS)
Launch site: TYURATAM MISSILE AND SPACE COMPLEX (TTMTR)

Note: This is SATELLITE DEBRIS
Your satellite tracking list
FENGYUN 1C DEB
Track 1 satellite(s)




NASA's NSSDC Master Catalog

Two Line Element Set (TLE):
1 23345U 94074D   25186.51716517  .00000778  00000-0  24280-3 0  9997
2 23345  97.8030  12.8110 0191051 143.6712 278.0087 14.33248107598085
Source of the keplerian elements: AFSPC